Location: Artiguedieu
(43.5000°N, 0.5454°E)
Time: 09:15:07
(UTC+00:00)

Explorer 7 - Pass Details

Date: 10 August 2021
Orbit: 484 x 676 km, 50.3° (Epoch: 22 September)

Event Time Altitude Azimuth Distance (km) Brightness Sun altitude
Rises 05:52:46 0° 298° (WNW) 2,571 9.8 8.7°
Reaches altitude 10° 05:55:00 10° 305° (NW) 1,704 9.0 9.1°
Maximum altitude 05:58:41 43° 19° (NNE) 730 7.9 9.8°
Drops below altitude 10° 06:02:32 10° 92° (E) 1,782 11.6 10.5°
Sets 06:04:54 0° 99° (E) 2,706 11.9 10.9°
